SES-6 1 39172U 13026A 21065.40618562 -.00000276 00000-0 00000-0 0 9996 2 39172 0.0592 298.2978 0001837 59.8376 271.9126 1.00271630 28381 BREEZE-M R/B 1 39173U 13026B 21064.90532700 -.00000144 00000-0 00000-0 0 9994 2 39173 23.6784 125.2782 7665304 269.8299 11.6563 1.10515955 30926 BREEZE-M DEB [TANK] 1 39174U 13026C 21065.49300159 .00000125 00000-0 15197-3 0 9995 2 39174 50.7517 56.8181 5147050 68.2586 337.8077 5.27072808148644